Location: Rock River
(41.7433°N, 105.9768°W)
Time: 07:23:19
(UTC+00:00)

Vanguard 1 - Pass Details

Date: 28 May 2022
Orbit: 649 x 3833 km, 34.2° (Epoch: 04 July)

Event Time Altitude Azimuth Distance (km) Brightness Sun altitude
Rises 07:40:43 0° 234° (SW) 4,938 - -26.1°
Reaches altitude 10° 07:43:28 10° 229° (SW) 4,277 - -26.0°
Exits shadow 07:49:00 35° 212° (SSW) 3,308 12.2 -25.8°
Maximum altitude 07:55:41 56° 156° (SSE) 3,175 12.2 -25.5°
Drops below altitude 10° 08:16:10 10° 86° (E) 6,816 14.6 -24.4°
Sets 08:21:58 0° 83° (E) 7,963 15.1 -24.1°
